Location: Newark
(59.8814°N, 10.8258°E)
Time: 01:59:08
(UTC+00:00)

Envisat - Pass Details

Date: 27 January 2020
Orbit: 764 x 766 km, 98.1° (Epoch: 21 February)

Event Time Altitude Azimuth Distance (km) Brightness Sun altitude
Rises 06:32:12 0° 16° (NNE) 3,249 6.2 -8.4°
Reaches altitude 10° 06:34:31 10° 17° (NNE) 2,318 5.4 -8.2°
Maximum altitude 06:39:38 87° 291° (WNW) 776 3.0 -7.6°
Drops below altitude 10° 06:44:44 10° 201° (SSW) 2,302 5.5 -7.0°
Sets 06:47:02 0° 201° (SSW) 3,224 6.3 -6.7°
